Location: Dumpton Point
(51.3500°N, 1.4433°E)
Time: 10:01:27
(UTC+00:00)

Courier 1B - All Passes

Search period start: 07 October 2022 00:00
Search period end: 17 October 2022 00:00
Orbit: 962 x 1209 km, 28.3° (Epoch: 06 October)

Date Brightness Start Highest point End Pass type
(mag) Time Alt. Az. Time Alt. Az. Time Alt. Az.
08 Oct - 14:19:29 10° SSW 14:20:42 10° S 14:21:54 10° S daylight
09 Oct - 13:25:21 10° SSW 13:27:14 11° S 13:29:05 10° SSE daylight
10 Oct - 12:31:49 10° S 12:33:45 11° S 12:35:40 10° SSE daylight
11 Oct - 11:38:49 10° S 11:40:15 11° S 11:41:41 10° SSE daylight
11 Oct - 13:31:22 10° SSW 13:32:46 11° S 13:34:10 10° S daylight
12 Oct - 12:37:04 10° SSW 12:39:17 11° S 12:41:29 10° SSE daylight
13 Oct - 11:43:21 10° SSW 11:45:47 12° S 11:48:13 10° SSE daylight
14 Oct - 10:50:02 10° SSW 10:52:16 11° S 10:54:30 10° SSE daylight
14 Oct - 12:43:56 10° SSW 12:44:49 10° S 12:45:40 10° S daylight
15 Oct - 09:57:22 10° S 09:58:46 11° S 10:00:10 10° SSE daylight
15 Oct - 11:49:12 10° SSW 11:51:19 11° S 11:53:26 10° S daylight
16 Oct - 10:55:19 10° SSW 10:57:48 12° S 11:00:17 10° SSE daylight
